Time,TemperatureF,DewpointF,PressureIn,WindDirection,WindDirectionDegrees,WindSpeedMPH,WindSpeedGustMPH,Humidity,HourlyPrecipIn,Conditions,Clouds,dailyrainin,SolarRadiationWatts/m^2,SoftwareType,DateUTC
2013-05-19 00:03:00,68.0,61.9,29.82,ESE,114,4.1,9.2,81,0.00,CLR,,0.00,0.0,WeatherDisplay:10.37,2013-05-19 05:03:00,
2013-05-19 00:08:00,68.3,62.2,29.83,SE,146,4.4,6.0,81,0.00,CLR,,0.00,0.0,WeatherDisplay:10.37,2013-05-19 05:08:00,
2013-05-19 00:13:00,68.5,62.1,29.83,SE,128,4.8,6.9,80,0.00,CLR,,0.00,0.0,WeatherDisplay:10.37,2013-05-19 05:13:00,
2013-05-19 00:18:00,68.5,62.1,29.82,SSE,151,4.8,6.9,80,0.00,CLR,,0.00,0.0,WeatherDisplay:10.37,2013-05-19 05:18:00,
2013-05-19 00:23:00,68.6,62.2,29.82,SE,128,4.7,7.0,80,0.00,CLR,,0.00,0.0,WeatherDisplay:10.37,2013-05-19 05:23:00,
2013-05-19 00:28:00,68.6,62.2,29.82,SSW,193,5.9,11.5,80,0.00,CLR,,0.00,0.0,WeatherDisplay:10.37,2013-05-19 05:28:00,
2013-05-19 00:33:00,68.4,62.0,29.83,SSE,162,6.2,12.0,80,0.00,CLR,,0.00,0.0,WeatherDisplay:10.37,2013-05-19 05:33:00,
2013-05-19 00:38:00,68.3,62.2,29.83,SSE,158,5.9,9.2,81,0.00,CLR,,0.00,0.0,WeatherDisplay:10.37,2013-05-19 05:38:00,
2013-05-19 00:43:00,68.4,62.3,29.84,SSE,153,4.8,10.4,81,0.00,CLR,,0.00,0.0,WeatherDisplay:10.37,2013-05-19 05:43:00,
2013-05-19 00:48:00,68.3,62.2,29.84,SE,129,5.8,10.4,81,0.00,CLR,,0.00,0.0,WeatherDisplay:10.37,2013-05-19 05:48:00,
2013-05-19 00:53:00,68.2,62.1,29.84,SSE,149,7.3,11.5,81,0.00,CLR,,0.00,0.0,WeatherDisplay:10.37,2013-05-19 05:53:00,
2013-05-19 00:58:00,68.0,61.9,29.84,SSE,150,7.6,11.5,81,0.00,CLR,,0.00,0.0,WeatherDisplay:10.37,2013-05-19 05:58:00,
2013-05-19 01:03:00,67.8,61.8,29.83,ESE,122,4.5,7.0,81,0.00,CLR,,0.00,0.0,WeatherDisplay:10.37,2013-05-19 06:03:00,
2013-05-19 01:08:00,67.5,61.8,29.83,SE,138,3.6,5.8,82,0.00,CLR,,0.00,0.0,WeatherDisplay:10.37,2013-05-19 06:08:00,
2013-05-19 01:13:00,67.2,61.5,29.83,SE,130,5.7,11.5,82,0.00,CLR,,0.00,0.0,WeatherDisplay:10.37,2013-05-19 06:13:00,
2013-05-19 01:18:00,67.1,61.8,29.83,SE,136,5.6,10.4,83,0.00,CLR,,0.00,0.0,WeatherDisplay:10.37,2013-05-19 06:18:00,
2013-05-19 01:23:00,67.0,61.7,29.83,SSE,149,3.8,6.0,83,0.00,CLR,,0.00,0.0,WeatherDisplay:10.37,2013-05-19 06:23:00,
2013-05-19 01:28:00,66.9,61.9,29.83,SSE,152,5.7,10.4,84,0.00,CLR,,0.00,0.0,WeatherDisplay:10.37,2013-05-19 06:28:00,
2013-05-19 01:33:00,66.9,61.9,29.83,ESE,121,5.3,7.0,84,0.00,CLR,,0.00,0.0,WeatherDisplay:10.37,2013-05-19 06:33:00,
2013-05-19 01:38:00,66.9,61.9,29.83,SE,132,5.9,9.0,84,0.00,CLR,,0.00,0.0,WeatherDisplay:10.37,2013-05-19 06:38:00,
2013-05-19 01:43:00,67.0,62.3,29.84,SE,138,6.4,9.0,85,0.00,CLR,,0.00,0.0,WeatherDisplay:10.37,2013-05-19 06:43:00,
2013-05-19 01:48:00,67.2,62.5,29.85,SSE,148,5.3,11.5,85,0.00,CLR,,0.00,0.0,WeatherDisplay:10.37,2013-05-19 06:48:00,
2013-05-19 01:53:00,67.2,62.5,29.85,SSE,156,6.0,10.0,85,0.00,CLR,,0.00,0.0,WeatherDisplay:10.37,2013-05-19 06:53:00,
2013-05-19 01:58:00,67.2,62.5,29.85,SE,142,6.3,10.4,85,0.00,CLR,,0.00,0.0,WeatherDisplay:10.37,2013-05-19 06:58:00,
2013-05-19 02:03:00,67.2,62.5,29.85,South,183,6.1,12.0,85,0.00,CLR,,0.00,0.0,WeatherDisplay:10.37,2013-05-19 07:03:00,
2013-05-19 02:08:00,67.3,62.6,29.85,SSE,155,7.0,11.5,85,0.00,CLR,,0.00,0.0,WeatherDisplay:10.37,2013-05-19 07:08:00,
2013-05-19 02:13:00,67.4,62.7,29.84,SSE,152,5.4,9.2,85,0.00,CLR,,0.00,0.0,WeatherDisplay:10.37,2013-05-19 07:13:00,
2013-05-19 02:18:00,67.5,62.8,29.84,SE,144,4.5,9.2,85,0.00,CLR,,0.00,0.0,WeatherDisplay:10.37,2013-05-19 07:18:00,
2013-05-19 02:23:00,67.6,62.9,29.84,SSE,149,4.6,9.0,85,0.00,CLR,,0.00,0.0,WeatherDisplay:10.37,2013-05-19 07:23:00,
2013-05-19 02:28:00,67.7,63.0,29.84,SE,129,6.4,10.0,85,0.00,CLR,,0.00,0.0,WeatherDisplay:10.37,2013-05-19 07:28:00,
2013-05-19 02:33:00,67.9,63.2,29.84,SSE,150,7.3,10.0,85,0.00,CLR,,0.00,0.0,WeatherDisplay:10.37,2013-05-19 07:33:00,
2013-05-19 02:38:00,68.0,63.3,29.84,SSE,148,5.0,11.5,85,0.00,CLR,,0.00,0.0,WeatherDisplay:10.37,2013-05-19 07:38:00,
2013-05-19 02:43:00,68.0,63.3,29.83,SSE,150,5.7,9.2,85,0.00,CLR,,0.00,0.0,WeatherDisplay:10.37,2013-05-19 07:43:00,
2013-05-19 02:48:00,68.0,63.3,29.83,SE,143,5.1,10.4,85,0.00,CLR,,0.00,0.0,WeatherDisplay:10.37,2013-05-19 07:48:00,
2013-05-19 02:53:00,67.9,63.2,29.83,SE,145,4.9,6.9,85,0.00,CLR,,0.00,0.0,WeatherDisplay:10.37,2013-05-19 07:53:00,
2013-05-19 02:58:00,67.9,63.2,29.83,SE,133,4.2,6.9,85,0.00,CLR,,0.00,0.0,WeatherDisplay:10.37,2013-05-19 07:58:00,
2013-05-19 03:03:00,67.8,63.5,29.83,SSE,151,5.9,9.2,86,0.00,CLR,,0.00,0.0,WeatherDisplay:10.37,2013-05-19 08:03:00,
2013-05-19 03:08:00,67.7,63.0,29.83,SSE,148,4.4,7.0,85,0.00,CLR,,0.00,0.0,WeatherDisplay:10.37,2013-05-19 08:08:00,
2013-05-19 03:13:00,67.6,63.3,29.83,SE,124,3.8,6.0,86,0.00,CLR,,0.00,0.0,WeatherDisplay:10.37,2013-05-19 08:13:00,
2013-05-19 03:18:00,67.4,63.1,29.83,South,169,5.8,9.2,86,0.00,CLR,,0.00,0.0,WeatherDisplay:10.37,2013-05-19 08:18:00,
2013-05-19 03:23:00,67.4,63.1,29.84,SSE,150,4.6,7.0,86,0.00,CLR,,0.00,0.0,WeatherDisplay:10.37,2013-05-19 08:23:00,
2013-05-19 03:28:00,67.4,63.1,29.84,SSE,150,2.5,6.9,86,0.00,CLR,,0.00,0.0,WeatherDisplay:10.37,2013-05-19 08:28:00,
2013-05-19 03:33:00,67.4,63.4,29.84,SSE,149,4.4,10.0,87,0.00,CLR,,0.00,0.0,WeatherDisplay:10.37,2013-05-19 08:33:00,
2013-05-19 03:38:00,67.3,63.3,29.84,SSE,152,3.8,5.0,87,0.00,CLR,,0.00,0.0,WeatherDisplay:10.37,2013-05-19 08:38:00,
2013-05-19 03:43:00,67.3,63.3,29.84,SSE,153,4.0,5.0,87,0.00,CLR,,0.00,0.0,WeatherDisplay:10.37,2013-05-19 08:43:00,
2013-05-19 03:48:00,67.1,63.1,29.84,SSE,155,5.1,7.0,87,0.00,CLR,,0.00,0.0,WeatherDisplay:10.37,2013-05-19 08:48:00,
2013-05-19 03:53:00,67.0,63.0,29.83,SSE,148,3.6,5.8,87,0.00,CLR,,0.00,0.0,WeatherDisplay:10.37,2013-05-19 08:53:00,
2013-05-19 03:58:00,66.9,62.9,29.83,SSE,150,3.7,5.0,87,0.00,CLR,,0.00,0.0,WeatherDisplay:10.37,2013-05-19 08:58:00,
2013-05-19 04:03:00,66.8,62.8,29.83,ESE,119,4.0,6.9,87,0.00,CLR,,0.00,0.0,WeatherDisplay:10.37,2013-05-19 09:03:00,
2013-05-19 04:08:00,66.8,63.1,29.83,SE,128,4.6,7.0,88,0.00,CLR,,0.00,0.0,WeatherDisplay:10.37,2013-05-19 09:08:00,
2013-05-19 04:13:00,66.8,63.1,29.83,SE,146,6.5,12.0,88,0.00,CLR,,0.00,0.0,WeatherDisplay:10.37,2013-05-19 09:13:00,
2013-05-19 04:18:00,66.9,63.2,29.83,SE,127,5.0,6.9,88,0.00,CLR,,0.00,0.0,WeatherDisplay:10.37,2013-05-19 09:18:00,
2013-05-19 04:23:00,66.9,63.2,29.83,SSE,149,5.6,8.0,88,0.00,CLR,,0.00,0.0,WeatherDisplay:10.37,2013-05-19 09:23:00,
2013-05-19 04:28:00,67.0,63.3,29.82,SE,141,5.4,10.4,88,0.00,CLR,,0.00,0.0,WeatherDisplay:10.37,2013-05-19 09:28:00,
2013-05-19 04:33:00,67.1,63.4,29.82,SSE,151,7.0,10.4,88,0.00,CLR,,0.00,0.0,WeatherDisplay:10.37,2013-05-19 09:33:00,
2013-05-19 04:38:00,67.1,63.4,29.82,SSE,156,8.3,11.5,88,0.00,CLR,,0.00,0.0,WeatherDisplay:10.37,2013-05-19 09:38:00,
2013-05-19 04:43:00,67.3,63.6,29.81,SSE,150,5.3,9.2,88,0.00,CLR,,0.00,0.0,WeatherDisplay:10.37,2013-05-19 09:43:00,
2013-05-19 04:48:00,67.4,63.7,29.81,SE,127,5.3,9.2,88,0.00,CLR,,0.00,0.0,WeatherDisplay:10.37,2013-05-19 09:48:00,
2013-05-19 04:53:00,67.4,63.7,29.81,SE,145,7.1,11.5,88,0.00,CLR,,0.00,0.0,WeatherDisplay:10.37,2013-05-19 09:53:00,
2013-05-19 04:58:00,67.4,63.7,29.80,SE,138,5.1,9.2,88,0.00,CLR,,0.00,0.0,WeatherDisplay:10.37,2013-05-19 09:58:00,
2013-05-19 05:03:00,67.4,63.7,29.80,SE,143,6.2,11.0,88,0.00,CLR,,0.00,0.0,WeatherDisplay:10.37,2013-05-19 10:03:00,
2013-05-19 05:08:00,67.3,63.6,29.80,SSE,151,5.3,9.2,88,0.00,CLR,,0.00,0.0,WeatherDisplay:10.37,2013-05-19 10:08:00,
2013-05-19 05:13:00,67.3,63.6,29.80,SSE,160,5.4,9.0,88,0.00,OVC,,0.00,0.0,WeatherDisplay:10.37,2013-05-19 10:13:00,
2013-05-19 05:18:00,67.3,63.6,29.80,SE,144,6.2,10.4,88,0.00,OVC,,0.00,0.0,WeatherDisplay:10.37,2013-05-19 10:18:00,
2013-05-19 05:23:00,67.2,63.5,29.79,ESE,121,5.2,9.2,88,0.00,OVC,,0.00,0.0,WeatherDisplay:10.37,2013-05-19 10:23:00,
2013-05-19 05:28:00,67.2,63.5,29.80,SE,141,5.3,11.5,88,0.00,OVC,,0.00,0.0,WeatherDisplay:10.37,2013-05-19 10:28:00,
2013-05-19 05:33:00,67.1,63.4,29.80,SSE,163,2.4,5.0,88,0.00,OVC,,0.00,0.0,WeatherDisplay:10.37,2013-05-19 10:33:00,
2013-05-19 05:38:00,67.0,63.3,29.81,SE,130,3.4,5.0,88,0.00,OVC,,0.00,6.2,WeatherDisplay:10.37,2013-05-19 10:38:00,
2013-05-19 05:43:00,67.0,63.3,29.80,SE,140,3.2,6.9,88,0.00,OVC,,0.00,6.2,WeatherDisplay:10.37,2013-05-19 10:43:00,
2013-05-19 05:48:00,67.0,63.3,29.81,SE,136,3.3,5.0,88,0.00,CLR,,0.00,6.2,WeatherDisplay:10.37,2013-05-19 10:48:00,
2013-05-19 05:53:00,66.9,63.2,29.80,ESE,116,4.5,10.0,88,0.00,CLR,,0.00,8.7,WeatherDisplay:10.37,2013-05-19 10:53:00,
2013-05-19 05:58:00,66.9,63.2,29.80,SE,144,4.6,10.4,88,0.00,CLR,,0.00,14.9,WeatherDisplay:10.37,2013-05-19 10:58:00,
2013-05-19 06:03:00,66.8,63.1,29.79,SE,130,5.1,7.0,88,0.00,CLR,,0.00,22.3,WeatherDisplay:10.37,2013-05-19 11:03:00,
2013-05-19 06:08:00,66.8,63.5,29.80,SE,140,4.2,5.8,89,0.00,FEW,,0.00,23.6,WeatherDisplay:10.37,2013-05-19 11:08:00,
2013-05-19 06:13:00,66.9,63.6,29.80,ESE,109,7.3,11.5,89,0.00,SCT,,0.00,28.5,WeatherDisplay:10.37,2013-05-19 11:13:00,
2013-05-19 06:18:00,66.9,63.6,29.82,SE,128,4.9,11.5,89,0.00,SCT,,0.00,32.2,WeatherDisplay:10.37,2013-05-19 11:18:00,
2013-05-19 06:23:00,67.0,63.6,29.82,ESE,121,4.2,9.2,89,0.00,OVC,,0.00,23.6,WeatherDisplay:10.37,2013-05-19 11:23:00,
2013-05-19 06:28:00,67.1,63.7,29.82,SE,126,4.7,9.2,89,0.00,BKN,,0.00,32.2,WeatherDisplay:10.37,2013-05-19 11:28:00,
2013-05-19 06:33:00,67.2,63.5,29.83,SE,144,4.7,6.0,88,0.00,BKN,,0.00,37.2,WeatherDisplay:10.37,2013-05-19 11:33:00,
2013-05-19 06:38:00,67.3,63.6,29.83,SSE,152,2.5,4.6,88,0.00,OVC,,0.00,34.7,WeatherDisplay:10.37,2013-05-19 11:38:00,
2013-05-19 06:43:00,67.4,63.7,29.82,SE,125,4.6,7.0,88,0.00,BKN,,0.00,40.9,WeatherDisplay:10.37,2013-05-19 11:43:00,
2013-05-19 06:48:00,67.4,63.7,29.82,SE,130,3.8,7.0,88,0.00,OVC,,0.00,40.9,WeatherDisplay:10.37,2013-05-19 11:48:00,
2013-05-19 06:53:00,67.4,63.7,29.82,SE,144,3.2,4.6,88,0.00,OVC,,0.00,39.7,WeatherDisplay:10.37,2013-05-19 11:53:00,
2013-05-19 06:58:00,67.4,63.7,29.82,SE,137,3.6,10.4,88,0.00,OVC,,0.00,34.7,WeatherDisplay:10.37,2013-05-19 11:58:00,
2013-05-19 07:03:00,67.5,63.8,29.82,ESE,123,5.0,9.2,88,0.00,OVC,,0.00,34.7,WeatherDisplay:10.37,2013-05-19 12:03:00,
2013-05-19 07:08:00,67.5,63.8,29.82,SE,130,4.6,8.0,88,0.00,OVC,,0.00,32.2,WeatherDisplay:10.37,2013-05-19 12:08:00,
2013-05-19 07:13:00,67.6,63.9,29.83,SE,144,2.8,5.0,88,0.00,OVC,,0.00,26.0,WeatherDisplay:10.37,2013-05-19 12:13:00,
2013-05-19 07:18:00,67.6,63.9,29.82,SE,135,1.8,6.0,88,0.00,OVC,,0.00,28.5,WeatherDisplay:10.37,2013-05-19 12:18:00,
2013-05-19 07:23:00,67.6,63.9,29.82,ESE,110,4.9,6.9,88,0.00,OVC,,0.00,43.4,WeatherDisplay:10.37,2013-05-19 12:23:00,
2013-05-19 07:28:00,67.7,64.0,29.81,East,101,3.6,5.8,88,0.00,OVC,,0.00,48.4,WeatherDisplay:10.37,2013-05-19 12:28:00,
2013-05-19 07:33:00,67.7,64.0,29.81,ESE,106,4.4,11.5,88,0.00,OVC,,0.00,57.0,WeatherDisplay:10.37,2013-05-19 12:33:00,
2013-05-19 07:38:00,67.7,64.0,29.81,SE,128,4.4,10.0,88,0.00,OVC,,0.00,65.7,WeatherDisplay:10.37,2013-05-19 12:38:00,
2013-05-19 07:44:00,67.7,64.0,29.81,SE,125,5.2,7.0,88,0.00,OVC,,0.00,76.9,WeatherDisplay:10.37,2013-05-19 12:44:00,
2013-05-19 07:49:00,67.7,64.0,29.80,SE,128,4.7,9.2,88,0.00,OVC,,0.00,89.3,WeatherDisplay:10.37,2013-05-19 12:49:00,
2013-05-19 07:54:00,67.8,64.1,29.80,SE,128,3.4,6.0,88,0.00,OVC,,0.00,102.9,WeatherDisplay:10.37,2013-05-19 12:54:00,
2013-05-19 07:59:00,67.9,64.2,29.81,SE,134,3.5,10.4,88,0.00,OVC,,0.00,115.3,WeatherDisplay:10.37,2013-05-19 12:59:00,
2013-05-19 08:04:00,68.0,64.3,29.81,SSE,162,5.3,11.0,88,0.00,OVC,,0.00,129.0,WeatherDisplay:10.37,2013-05-19 13:04:00,
2013-05-19 08:09:00,68.1,64.4,29.81,ESE,121,5.4,9.2,88,0.00,BKN,,0.00,140.1,WeatherDisplay:10.37,2013-05-19 13:09:00,
2013-05-19 08:14:00,68.3,64.6,29.80,SE,145,2.5,7.0,88,0.00,BKN,,0.00,155.0,WeatherDisplay:10.37,2013-05-19 13:14:00,
2013-05-19 08:19:00,68.4,64.7,29.81,SE,132,4.8,10.4,88,0.00,BKN,,0.00,172.4,WeatherDisplay:10.37,2013-05-19 13:19:00,
2013-05-19 08:24:00,68.6,64.6,29.81,East,99,5.0,6.0,87,0.00,BKN,,0.00,195.9,WeatherDisplay:10.37,2013-05-19 13:24:00,
2013-05-19 08:29:00,68.9,64.9,29.81,ESE,121,6.2,10.4,87,0.00,SCT,,0.00,220.7,WeatherDisplay:10.37,2013-05-19 13:29:00,
2013-05-19 08:34:00,69.1,65.1,29.81,ESE,109,5.3,11.0,87,0.00,SCT,,0.00,238.1,WeatherDisplay:10.37,2013-05-19 13:34:00,
2013-05-19 08:39:00,69.4,65.4,29.80,SE,139,5.8,12.0,87,0.00,SCT,,0.00,248.0,WeatherDisplay:10.37,2013-05-19 13:39:00,
2013-05-19 08:44:00,69.6,65.6,29.80,ESE,120,4.1,10.4,87,0.00,SCT,,0.00,244.3,WeatherDisplay:10.37,2013-05-19 13:44:00,
2013-05-19 08:49:00,69.9,65.5,29.80,SSE,166,6.0,11.5,86,0.00,SCT,,0.00,255.4,WeatherDisplay:10.37,2013-05-19 13:49:00,
2013-05-19 08:54:00,70.2,65.8,29.80,ESE,118,6.5,11.5,86,0.00,SCT,,0.00,285.2,WeatherDisplay:10.37,2013-05-19 13:54:00,
2013-05-19 08:59:00,70.4,65.7,29.80,SE,126,4.4,12.7,85,0.00,SCT,,0.00,290.2,WeatherDisplay:10.37,2013-05-19 13:59:00,
2013-05-19 09:04:00,70.8,66.1,29.80,ESE,113,4.6,12.7,85,0.00,SCT,,0.00,311.2,WeatherDisplay:10.37,2013-05-19 14:04:00,
2013-05-19 09:09:00,71.2,66.5,29.81,SSE,160,3.1,8.1,85,0.00,SCT,,0.00,270.3,WeatherDisplay:10.37,2013-05-19 14:09:00,
2013-05-19 09:14:00,71.4,66.3,29.81,SSE,148,5.8,9.2,84,0.00,SCT,,0.00,293.9,WeatherDisplay:10.37,2013-05-19 14:14:00,
2013-05-19 09:19:00,71.7,66.3,29.81,SE,130,6.7,13.8,83,0.00,SCT,,0.00,302.6,WeatherDisplay:10.37,2013-05-19 14:19:00,
2013-05-19 09:24:00,72.1,66.6,29.81,SSE,154,5.3,10.0,83,0.00,FEW,,0.00,656.0,WeatherDisplay:10.37,2013-05-19 14:24:00,
2013-05-19 09:29:00,72.8,67.0,29.81,SSE,153,6.5,11.5,82,0.00,CLR,,0.00,632.4,WeatherDisplay:10.37,2013-05-19 14:29:00,
2013-05-19 09:34:00,73.4,67.6,29.80,SSE,147,4.9,9.2,82,0.00,CLR,,0.00,446.4,WeatherDisplay:10.37,2013-05-19 14:34:00,
2013-05-19 09:39:00,74.0,67.8,29.81,SSE,158,5.3,13.8,81,0.00,CLR,,0.00,322.4,WeatherDisplay:10.37,2013-05-19 14:39:00,
2013-05-19 09:44:00,74.1,67.2,29.80,South,180,9.8,14.0,79,0.00,FEW,,0.00,437.7,WeatherDisplay:10.37,2013-05-19 14:44:00,
2013-05-19 09:49:00,74.6,68.0,29.81,SE,129,6.9,14.0,80,0.00,FEW,,0.00,799.8,WeatherDisplay:10.37,2013-05-19 14:49:00,
2013-05-19 09:54:00,75.1,67.8,29.81,SSE,156,9.1,13.8,78,0.00,CLR,,0.00,419.1,WeatherDisplay:10.37,2013-05-19 14:54:00,
2013-05-19 09:59:00,75.3,68.0,29.83,SSE,156,8.4,15.0,78,0.00,FEW,,0.00,256.7,WeatherDisplay:10.37,2013-05-19 14:59:00,
2013-05-19 10:04:00,75.1,67.4,29.83,SE,142,6.6,12.0,77,0.00,BKN,,0.00,167.4,WeatherDisplay:10.37,2013-05-19 15:04:00,
2013-05-19 10:09:00,74.9,67.6,29.84,SE,126,3.5,7.0,78,0.00,OVC,,0.00,184.8,WeatherDisplay:10.37,2013-05-19 15:09:00,
2013-05-19 10:14:00,74.8,67.5,29.83,SSE,160,5.6,9.2,78,0.00,OVC,,0.00,359.6,WeatherDisplay:10.37,2013-05-19 15:14:00,
2013-05-19 10:19:00,74.8,67.8,29.83,SE,136,7.8,12.0,79,0.00,OVC,,0.00,265.4,WeatherDisplay:10.37,2013-05-19 15:19:00,
2013-05-19 10:24:00,74.8,67.8,29.83,SSE,156,5.0,10.0,79,0.00,BKN,,0.00,427.8,WeatherDisplay:10.37,2013-05-19 15:24:00,
2013-05-19 10:29:00,75.2,68.2,29.83,SE,144,8.8,15.0,79,0.00,SCT,,0.00,365.8,WeatherDisplay:10.37,2013-05-19 15:29:00,
2013-05-19 10:34:00,75.5,68.2,29.83,SSE,159,5.9,15.0,78,0.00,SCT,,0.00,324.9,WeatherDisplay:10.37,2013-05-19 15:34:00,
2013-05-19 10:39:00,75.5,68.2,29.83,SE,139,9.6,13.8,78,0.00,SCT,,0.00,411.7,WeatherDisplay:10.37,2013-05-19 15:39:00,
2013-05-19 10:44:00,75.7,68.4,29.83,SSE,154,7.0,12.7,78,0.00,SCT,,0.00,365.8,WeatherDisplay:10.37,2013-05-19 15:44:00,
2013-05-19 10:49:00,75.8,68.4,29.82,South,182,8.3,19.0,78,0.00,SCT,,0.00,368.3,WeatherDisplay:10.37,2013-05-19 15:49:00,
2013-05-19 10:54:00,76.0,68.6,29.82,SSE,154,8.3,12.7,78,0.00,BKN,,0.00,414.2,WeatherDisplay:10.37,2013-05-19 15:54:00,
2013-05-19 10:59:00,76.1,68.7,29.82,SSE,156,5.7,11.5,78,0.00,BKN,,0.00,239.3,WeatherDisplay:10.37,2013-05-19 15:59:00,
2013-05-19 11:04:00,76.1,68.4,29.82,SSE,153,7.9,12.7,77,0.00,OVC,,0.00,204.6,WeatherDisplay:10.37,2013-05-19 16:04:00,
2013-05-19 11:09:00,76.0,68.6,29.82,SSE,156,7.0,11.5,78,0.00,OVC,,0.00,298.8,WeatherDisplay:10.37,2013-05-19 16:09:00,
2013-05-19 11:14:00,76.0,68.6,29.82,SSW,202,5.0,11.5,78,0.00,OVC,,0.00,400.5,WeatherDisplay:10.37,2013-05-19 16:14:00,
2013-05-19 11:19:00,76.1,68.7,29.83,SSW,200,7.9,13.8,78,0.00,OVC,,0.00,148.8,WeatherDisplay:10.37,2013-05-19 16:19:00,
2013-05-19 11:24:00,75.9,68.5,29.83,SW,217,7.4,12.7,78,0.00,OVC,,0.00,121.5,WeatherDisplay:10.37,2013-05-19 16:24:00,
2013-05-19 11:29:00,75.6,68.6,29.83,SSE,151,5.0,9.2,79,0.00,OVC,,0.00,204.6,WeatherDisplay:10.37,2013-05-19 16:29:00,
2013-05-19 11:34:00,75.6,69.0,29.81,SSE,165,2.9,5.0,80,0.00,OVC,,0.00,466.2,WeatherDisplay:10.37,2013-05-19 16:34:00,
2013-05-19 11:39:00,76.0,69.0,29.81,South,190,6.5,10.4,79,0.00,BKN,,0.00,595.2,WeatherDisplay:10.37,2013-05-19 16:39:00,
2013-05-19 11:44:00,76.6,69.6,29.81,SSE,153,5.1,10.4,79,0.00,SCT,,0.00,328.6,WeatherDisplay:10.37,2013-05-19 16:44:00,
2013-05-19 11:49:00,77.0,69.6,29.81,South,186,3.9,9.2,78,0.00,SCT,,0.00,518.3,WeatherDisplay:10.37,2013-05-19 16:49:00,
2013-05-19 11:54:00,77.3,69.5,29.83,SE,146,4.3,10.4,77,0.00,BKN,,0.00,224.4,WeatherDisplay:10.37,2013-05-19 16:54:00,
2013-05-19 11:59:00,77.3,69.5,29.82,SSE,168,4.3,10.4,77,0.00,OVC,,0.00,307.5,WeatherDisplay:10.37,2013-05-19 16:59:00,
2013-05-19 12:04:00,77.4,69.6,29.81,SSE,153,4.3,5.8,77,0.00,OVC,,0.00,253.0,WeatherDisplay:10.37,2013-05-19 17:04:00,
2013-05-19 12:09:00,77.4,69.6,29.81,ESE,110,6.2,10.4,77,0.00,OVC,,0.00,346.0,WeatherDisplay:10.37,2013-05-19 17:09:00,
2013-05-19 12:14:00,77.6,70.2,29.79,SSE,152,4.6,7.0,78,0.00,BKN,,0.00,388.1,WeatherDisplay:10.37,2013-05-19 17:14:00,
2013-05-19 12:19:00,77.8,70.0,29.78,SE,138,5.5,10.4,77,0.00,BKN,,0.00,527.0,WeatherDisplay:10.37,2013-05-19 17:19:00,
2013-05-19 12:24:00,78.3,70.5,29.77,ESE,117,6.3,10.4,77,0.00,FEW,,0.00,532.0,WeatherDisplay:10.37,2013-05-19 17:24:00,
2013-05-19 12:29:00,78.6,70.4,29.76,SE,128,12.2,17.3,76,0.00,FEW,,0.00,577.8,WeatherDisplay:10.37,2013-05-19 17:29:00,
2013-05-19 12:34:00,78.3,70.1,29.73,ESE,113,9.5,16.1,76,0.00,SCT,,0.00,357.1,WeatherDisplay:10.37,2013-05-19 17:34:00,
2013-05-19 12:39:00,78.1,69.9,29.72,SE,146,7.8,17.3,76,0.00,BKN,,0.00,319.9,WeatherDisplay:10.37,2013-05-19 17:39:00,
2013-05-19 12:44:00,77.8,70.0,29.73,ESE,119,9.8,20.0,77,0.00,OVC,,0.00,370.8,WeatherDisplay:10.37,2013-05-19 17:44:00,
2013-05-19 12:49:00,77.6,69.8,29.72,SE,142,10.5,17.3,77,0.00,BKN,,0.00,388.1,WeatherDisplay:10.37,2013-05-19 17:49:00,
2013-05-19 12:54:00,77.7,69.9,29.72,ESE,123,6.0,11.5,77,0.00,BKN,,0.00,355.9,WeatherDisplay:10.37,2013-05-19 17:54:00,
2013-05-19 12:59:00,77.8,70.4,29.72,East,87,5.3,9.2,78,0.00,OVC,,0.00,364.6,WeatherDisplay:10.37,2013-05-19 17:59:00,
2013-05-19 13:04:00,78.0,70.2,29.72,SE,128,5.1,11.5,77,0.00,OVC,,0.00,344.7,WeatherDisplay:10.37,2013-05-19 18:04:00,
2013-05-19 13:09:00,78.1,70.3,29.72,SE,138,5.6,11.5,77,0.00,OVC,,0.00,287.7,WeatherDisplay:10.37,2013-05-19 18:09:00,
2013-05-19 13:14:00,78.1,70.3,29.72,SE,133,9.4,18.4,77,0.00,OVC,,0.00,333.6,WeatherDisplay:10.37,2013-05-19 18:14:00,
2013-05-19 13:19:00,78.1,70.3,29.72,SSE,165,6.8,12.0,77,0.00,OVC,,0.00,305.0,WeatherDisplay:10.37,2013-05-19 18:19:00,
2013-05-19 13:24:00,78.2,70.4,29.72,SE,132,7.7,10.4,77,0.00,OVC,,0.00,287.7,WeatherDisplay:10.37,2013-05-19 18:24:00,
2013-05-19 13:29:00,78.2,70.4,29.72,SE,124,8.9,17.3,77,0.00,OVC,,0.00,298.8,WeatherDisplay:10.37,2013-05-19 18:29:00,
2013-05-19 13:34:00,78.2,70.4,29.72,SE,133,5.0,9.2,77,0.00,OVC,,0.00,370.8,WeatherDisplay:10.37,2013-05-19 18:34:00,
2013-05-19 13:39:00,78.3,70.5,29.72,SSE,157,7.4,11.5,77,0.00,OVC,,0.00,468.7,WeatherDisplay:10.37,2013-05-19 18:39:00,
2013-05-19 13:44:00,78.7,70.9,29.72,SE,145,6.5,11.5,77,0.00,BKN,,0.00,558.0,WeatherDisplay:10.37,2013-05-19 18:44:00,
2013-05-19 13:49:00,78.9,70.7,29.72,SSE,159,10.7,19.0,76,0.00,SCT,,0.00,589.0,WeatherDisplay:10.37,2013-05-19 18:49:00,
2013-05-19 13:54:00,79.2,71.0,29.72,SSW,201,5.5,11.5,76,0.00,SCT,,0.00,706.8,WeatherDisplay:10.37,2013-05-19 18:54:00,
2013-05-19 13:59:00,79.6,71.0,29.72,SSE,150,11.7,19.6,75,0.00,FEW,,0.00,842.0,WeatherDisplay:10.37,2013-05-19 18:59:00,
2013-05-19 14:04:00,80.2,71.9,29.71,SE,132,5.0,10.4,76,0.00,CLR,,0.00,512.1,WeatherDisplay:10.37,2013-05-19 19:04:00,
2013-05-19 14:09:00,80.7,71.2,29.71,SE,140,11.8,23.0,73,0.00,CLR,,0.00,1092.4,WeatherDisplay:10.37,2013-05-19 19:09:00,
2013-05-19 14:14:00,81.3,71.8,29.71,SSW,203,9.1,19.6,73,0.00,CLR,,0.00,1142.0,WeatherDisplay:10.37,2013-05-19 19:14:00,
2013-05-19 14:19:00,82.0,72.1,29.71,SSE,164,11.1,20.0,72,0.00,CLR,,0.00,1150.7,WeatherDisplay:10.37,2013-05-19 19:19:00,
2013-05-19 14:24:00,82.3,72.0,29.70,SSE,159,10.0,23.0,71,0.00,CLR,,0.00,1035.4,WeatherDisplay:10.37,2013-05-19 19:24:00,
2013-05-19 14:29:00,82.8,72.4,29.70,ESE,111,10.4,16.1,71,0.00,CLR,,0.00,1101.1,WeatherDisplay:10.37,2013-05-19 19:29:00,
2013-05-19 14:34:00,83.3,72.1,29.70,SSE,151,12.3,18.4,69,0.00,CLR,,0.00,1066.4,WeatherDisplay:10.37,2013-05-19 19:34:00,
2013-05-19 14:39:00,83.8,72.5,29.69,SSE,148,11.8,20.0,69,0.00,CLR,,0.00,1035.4,WeatherDisplay:10.37,2013-05-19 19:39:00,
2013-05-19 14:44:00,84.0,72.3,29.70,SE,145,12.8,25.0,68,0.00,CLR,,0.00,1020.5,WeatherDisplay:10.37,2013-05-19 19:44:00,
2013-05-19 14:49:00,84.1,72.4,29.69,SE,133,9.7,17.3,68,0.00,CLR,,0.00,1013.1,WeatherDisplay:10.37,2013-05-19 19:49:00,
2013-05-19 14:54:00,84.6,72.4,29.69,South,187,10.0,24.2,67,0.00,CLR,,0.00,1037.9,WeatherDisplay:10.37,2013-05-19 19:54:00,
2013-05-19 14:59:00,85.0,72.8,29.68,SSE,165,10.2,18.4,67,0.00,CLR,,0.00,983.3,WeatherDisplay:10.37,2013-05-19 19:59:00,
2013-05-19 15:04:00,85.7,73.0,29.68,SSE,155,9.2,13.8,66,0.00,CLR,,0.00,994.5,WeatherDisplay:10.37,2013-05-19 20:04:00,
2013-05-19 15:09:00,85.9,72.8,29.68,SE,145,10.7,16.1,65,0.00,CLR,,0.00,983.3,WeatherDisplay:10.37,2013-05-19 20:09:00,
2013-05-19 15:14:00,86.2,73.0,29.68,SSE,151,9.5,14.0,65,0.00,CLR,,0.00,963.5,WeatherDisplay:10.37,2013-05-19 20:14:00,
2013-05-19 15:19:00,86.4,72.8,29.68,SSE,153,8.2,11.5,64,0.00,CLR,,0.00,830.8,WeatherDisplay:10.37,2013-05-19 20:19:00,
2013-05-19 15:24:00,86.4,72.3,29.68,SSE,153,11.4,16.1,63,0.00,CLR,,0.00,920.1,WeatherDisplay:10.37,2013-05-19 20:24:00,
2013-05-19 15:29:00,86.2,72.1,29.67,SE,129,8.9,21.0,63,0.00,CLR,,0.00,336.0,WeatherDisplay:10.37,2013-05-19 20:29:00,
2013-05-19 15:34:00,85.9,71.8,29.67,SE,138,12.1,20.0,63,0.00,CLR,,0.00,913.9,WeatherDisplay:10.37,2013-05-19 20:34:00,
2013-05-19 15:39:00,86.2,72.6,29.67,South,180,12.9,20.0,64,0.00,CLR,,0.00,880.4,WeatherDisplay:10.37,2013-05-19 20:39:00,
2013-05-19 15:44:00,86.5,72.4,29.67,South,173,11.3,18.0,63,0.00,CLR,,0.00,863.0,WeatherDisplay:10.37,2013-05-19 20:44:00,
2013-05-19 15:49:00,86.4,72.3,29.67,ESE,106,8.0,12.7,63,0.00,CLR,,0.00,327.4,WeatherDisplay:10.37,2013-05-19 20:49:00,
2013-05-19 15:54:00,86.9,72.8,29.67,SSE,153,10.6,17.3,63,0.00,CLR,,0.00,908.9,WeatherDisplay:10.37,2013-05-19 20:54:00,
2013-05-19 15:59:00,87.5,72.4,29.66,SSE,161,7.3,13.8,61,0.00,CLR,,0.00,788.6,WeatherDisplay:10.37,2013-05-19 20:59:00,
2013-05-19 16:04:00,87.9,72.8,29.66,SSE,159,10.2,19.6,61,0.00,CLR,,0.00,760.1,WeatherDisplay:10.37,2013-05-19 21:04:00,
2013-05-19 16:09:00,87.5,71.4,29.66,SSW,195,9.8,17.3,59,0.00,CLR,,0.00,256.7,WeatherDisplay:10.37,2013-05-19 21:09:00,
2013-05-19 16:14:00,87.2,71.6,29.66,SSE,165,12.9,19.6,60,0.00,FEW,,0.00,796.1,WeatherDisplay:10.37,2013-05-19 21:14:00,
2013-05-19 16:19:00,87.7,71.6,29.66,SE,126,14.0,18.4,59,0.00,CLR,,0.00,804.8,WeatherDisplay:10.37,2013-05-19 21:19:00,
2013-05-19 16:24:00,88.3,71.6,29.66,SSE,157,8.8,13.8,58,0.00,CLR,,0.00,793.6,WeatherDisplay:10.37,2013-05-19 21:24:00,
2013-05-19 16:29:00,88.8,71.6,29.66,South,188,9.0,15.0,57,0.00,CLR,,0.00,778.7,WeatherDisplay:10.37,2013-05-19 21:29:00,
2013-05-19 16:34:00,88.8,71.1,29.66,SE,127,7.8,16.1,56,0.00,CLR,,0.00,788.6,WeatherDisplay:10.37,2013-05-19 21:34:00,
2013-05-19 16:39:00,89.0,71.3,29.66,SSE,151,12.4,18.0,56,0.00,CLR,,0.00,662.2,WeatherDisplay:10.37,2013-05-19 21:39:00,
2013-05-19 16:44:00,88.6,71.4,29.65,SSE,162,8.2,13.8,57,0.00,CLR,,0.00,220.7,WeatherDisplay:10.37,2013-05-19 21:44:00,
2013-05-19 16:49:00,88.0,70.9,29.65,SSE,159,5.9,11.5,57,0.00,FEW,,0.00,95.5,WeatherDisplay:10.37,2013-05-19 21:49:00,
2013-05-19 16:54:00,87.2,70.6,29.65,SW,219,8.7,16.1,58,0.00,OVC,,0.00,58.3,WeatherDisplay:10.37,2013-05-19 21:54:00,
2013-05-19 16:59:00,86.6,70.6,29.65,SSE,152,7.7,14.0,59,0.00,OVC,,0.00,57.0,WeatherDisplay:10.37,2013-05-19 21:59:00,
2013-05-19 17:04:00,85.7,69.7,29.65,SSE,158,8.7,13.0,59,0.00,OVC,,0.00,58.3,WeatherDisplay:10.37,2013-05-19 22:04:00,
2013-05-19 17:09:00,85.4,70.4,29.65,SSE,159,5.7,11.5,61,0.00,OVC,,0.00,76.9,WeatherDisplay:10.37,2013-05-19 22:09:00,
2013-05-19 17:14:00,85.2,70.2,29.65,SSW,196,6.1,10.4,61,0.00,OVC,,0.00,45.9,WeatherDisplay:10.37,2013-05-19 22:14:00,
2013-05-19 17:19:00,85.2,70.2,29.65,SSW,196,12.4,21.9,61,0.00,OVC,,0.00,22.3,WeatherDisplay:10.37,2013-05-19 22:19:00,
2013-05-19 17:24:00,84.0,71.4,29.66,SSE,166,10.7,17.0,66,0.05,RA,,0.05,14.9,WeatherDisplay:10.37,2013-05-19 22:24:00,
2013-05-19 17:29:00,82.4,72.0,29.66,South,182,0.3,1.2,71,0.11,RA,,0.11,13.6,WeatherDisplay:10.37,2013-05-19 22:29:00,
2013-05-19 17:34:00,81.6,72.1,29.65,SSE,165,2.5,4.0,73,0.11,RA,,0.11,22.3,WeatherDisplay:10.37,2013-05-19 22:34:00,
2013-05-19 17:39:00,80.8,72.1,29.64,SSE,164,1.1,3.5,75,0.11,OVC,,0.11,19.8,WeatherDisplay:10.37,2013-05-19 22:39:00,
2013-05-19 17:44:00,80.3,72.0,29.65,SSE,165,0.8,2.0,76,0.11,OVC,,0.11,0.0,WeatherDisplay:10.37,2013-05-19 22:44:00,
2013-05-19 17:49:00,79.5,72.0,29.69,SW,226,4.6,7.0,78,0.12,RA,,0.14,0.0,WeatherDisplay:10.37,2013-05-19 22:49:00,
2013-05-19 17:54:00,76.6,64.8,29.72,WNW,283,20.9,29.9,67,0.17,RA,,0.18,0.0,WeatherDisplay:10.37,2013-05-19 22:54:00,
2013-05-19 17:59:00,71.7,61.0,29.73,West,270,25.4,34.5,69,0.22,RA,,0.22,0.0,WeatherDisplay:10.37,2013-05-19 22:59:00,
2013-05-19 18:04:00,67.3,59.5,29.75,WNW,286,26.8,34.5,76,0.30,RA,,0.31,0.0,WeatherDisplay:10.37,2013-05-19 23:04:00,
2013-05-19 18:09:00,65.6,59.6,29.75,NW,310,21.4,28.0,81,0.41,RA,,0.42,0.0,WeatherDisplay:10.37,2013-05-19 23:09:00,
2013-05-19 18:14:00,64.4,59.5,29.74,WNW,299,13.2,19.0,84,0.50,RA,,0.52,0.0,WeatherDisplay:10.37,2013-05-19 23:14:00,
2013-05-19 18:19:00,63.7,59.1,29.71,NW,304,10.7,17.0,85,0.60,RA,,0.63,0.0,WeatherDisplay:10.37,2013-05-19 23:19:00,
2013-05-19 18:25:00,63.2,58.9,29.70,West,275,13.5,16.0,86,0.75,RA,,0.86,0.0,WeatherDisplay:10.37,2013-05-19 23:25:00,
2013-05-19 18:30:00,62.8,58.9,29.66,SSE,153,5.8,9.2,87,0.87,RA,,1.01,0.0,WeatherDisplay:10.37,2013-05-19 23:30:00,
2013-05-19 18:35:00,62.7,59.4,29.69,East,85,9.7,15.0,89,1.01,RA,,1.14,0.0,WeatherDisplay:10.37,2013-05-19 23:35:00,
2013-05-19 18:40:00,62.7,59.7,29.67,WNW,288,7.2,11.5,90,1.11,RA,,1.22,6.2,WeatherDisplay:10.37,2013-05-19 23:40:00,
2013-05-19 18:45:00,62.9,59.9,29.66,NE,53,4.6,6.0,90,1.12,RA,,1.23,8.7,WeatherDisplay:10.37,2013-05-19 23:45:00,
2013-05-19 18:50:00,63.1,60.4,29.64,NE,49,1.8,4.6,91,1.12,RA,,1.24,11.2,WeatherDisplay:10.37,2013-05-19 23:50:00,
2013-05-19 18:55:00,63.3,60.6,29.66,SSE,150,3.2,9.0,91,1.07,RA,,1.24,13.6,WeatherDisplay:10.37,2013-05-19 23:55:00,
2013-05-19 19:00:00,63.4,60.7,29.65,ESE,112,2.1,3.5,91,1.02,OVC,,1.24,13.6,WeatherDisplay:10.37,2013-05-20 00:00:00,
2013-05-19 19:05:00,63.5,60.8,29.65,SW,222,0.7,2.3,91,0.95,OVC,,1.24,14.9,WeatherDisplay:10.37,2013-05-20 00:05:00,
2013-05-19 19:10:00,63.5,61.1,29.64,SSW,213,2.2,3.5,92,0.84,OVC,,1.24,17.4,WeatherDisplay:10.37,2013-05-20 00:10:00,
2013-05-19 19:15:00,63.6,61.2,29.64,SSW,213,0.9,2.3,92,0.74,OVC,,1.24,22.3,WeatherDisplay:10.37,2013-05-20 00:15:00,
2013-05-19 19:20:00,63.7,61.3,29.64,SE,136,2.2,5.0,92,0.64,OVC,,1.24,23.6,WeatherDisplay:10.37,2013-05-20 00:20:00,
2013-05-19 19:25:00,64.0,61.6,29.64,East,80,2.9,6.9,92,0.44,OVC,,1.24,31.0,WeatherDisplay:10.37,2013-05-20 00:25:00,
2013-05-19 19:30:00,64.1,61.7,29.64,East,82,3.1,4.6,92,0.26,BKN,,1.24,40.9,WeatherDisplay:10.37,2013-05-20 00:30:00,
2013-05-19 19:35:00,64.4,62.0,29.64,East,84,2.7,4.6,92,0.12,SCT,,1.24,48.4,WeatherDisplay:10.37,2013-05-20 00:35:00,
2013-05-19 19:40:00,64.6,62.5,29.64,ESE,115,3.5,5.0,93,0.02,SCT,,1.24,43.4,WeatherDisplay:10.37,2013-05-20 00:40:00,
2013-05-19 19:45:00,64.8,62.7,29.64,ESE,109,2.6,3.5,93,0.01,BKN,,1.24,28.5,WeatherDisplay:10.37,2013-05-20 00:45:00,
2013-05-19 19:50:00,65.0,62.9,29.65,East,80,3.3,5.0,93,0.00,OVC,,1.24,23.6,WeatherDisplay:10.37,2013-05-20 00:50:00,
2013-05-19 19:55:00,65.0,62.6,29.65,East,90,4.2,6.0,92,0.00,BKN,,1.24,19.8,WeatherDisplay:10.37,2013-05-20 00:55:00,
2013-05-19 20:00:00,65.0,62.6,29.66,East,85,3.1,4.6,92,0.00,BKN,,1.24,14.9,WeatherDisplay:10.37,2013-05-20 01:00:00,
2013-05-19 20:05:00,65.0,62.6,29.66,East,99,4.2,6.9,92,0.00,OVC,,1.24,8.7,WeatherDisplay:10.37,2013-05-20 01:05:00,
2013-05-19 20:10:00,65.0,62.6,29.66,ESE,113,4.1,6.9,92,0.00,OVC,,1.24,0.0,WeatherDisplay:10.37,2013-05-20 01:10:00,
2013-05-19 20:15:00,65.1,62.7,29.65,East,96,4.9,6.9,92,0.00,OVC,,1.24,0.0,WeatherDisplay:10.37,2013-05-20 01:15:00,
2013-05-19 20:20:00,65.2,62.5,29.66,East,98,4.4,6.9,91,0.00,OVC,,1.24,0.0,WeatherDisplay:10.37,2013-05-20 01:20:00,
2013-05-19 20:25:00,65.2,62.5,29.66,ESE,102,2.7,5.0,91,0.00,OVC,,1.24,0.0,WeatherDisplay:10.37,2013-05-20 01:25:00,
2013-05-19 20:30:00,65.3,62.3,29.65,East,98,6.0,9.2,90,0.00,OVC,,1.24,0.0,WeatherDisplay:10.37,2013-05-20 01:30:00,
2013-05-19 20:35:00,65.5,62.2,29.65,ESE,122,5.3,9.2,89,0.00,OVC,,1.24,0.0,WeatherDisplay:10.37,2013-05-20 01:35:00,
2013-05-19 20:40:00,65.6,61.9,29.64,ESE,109,6.9,10.4,88,0.00,OVC,,1.24,0.0,WeatherDisplay:10.37,2013-05-20 01:40:00,
2013-05-19 20:45:00,65.9,61.9,29.64,ESE,103,5.8,10.4,87,0.00,OVC,,1.24,0.0,WeatherDisplay:10.37,2013-05-20 01:45:00,
2013-05-19 20:50:00,66.0,61.4,29.63,ESE,119,6.0,10.4,85,0.00,OVC,,1.24,0.0,WeatherDisplay:10.37,2013-05-20 01:50:00,
2013-05-19 20:55:00,66.2,61.2,29.62,East,95,7.4,11.5,84,0.00,CLR,,1.24,0.0,WeatherDisplay:10.37,2013-05-20 01:55:00,
2013-05-19 21:00:00,66.7,61.0,29.62,ESE,111,6.9,12.0,82,0.00,CLR,,1.24,0.0,WeatherDisplay:10.37,2013-05-20 02:00:00,
2013-05-19 21:05:00,67.2,60.8,29.62,ESE,123,7.8,15.0,80,0.00,CLR,,1.24,0.0,WeatherDisplay:10.37,2013-05-20 02:05:00,
2013-05-19 21:10:00,67.4,60.7,29.62,SE,133,4.5,9.0,79,0.00,CLR,,1.24,0.0,WeatherDisplay:10.37,2013-05-20 02:10:00,
2013-05-19 21:15:00,67.4,60.7,29.62,ESE,108,6.8,12.0,79,0.00,CLR,,1.24,0.0,WeatherDisplay:10.37,2013-05-20 02:15:00,
2013-05-19 21:20:00,67.6,60.9,29.62,ESE,118,6.0,9.2,79,0.00,CLR,,1.24,0.0,WeatherDisplay:10.37,2013-05-20 02:20:00,
2013-05-19 21:25:00,67.7,61.0,29.62,East,101,7.8,11.0,79,0.00,CLR,,1.24,0.0,WeatherDisplay:10.37,2013-05-20 02:25:00,
2013-05-19 21:30:00,67.8,61.4,29.62,SE,142,8.9,15.0,80,0.00,CLR,,1.24,0.0,WeatherDisplay:10.37,2013-05-20 02:30:00,
2013-05-19 21:35:00,68.1,61.3,29.63,ESE,110,6.0,11.5,79,0.00,CLR,,1.24,0.0,WeatherDisplay:10.37,2013-05-20 02:35:00,
2013-05-19 21:40:00,68.4,61.6,29.62,SE,142,6.2,13.0,79,0.00,CLR,,1.24,0.0,WeatherDisplay:10.37,2013-05-20 02:40:00,
2013-05-19 21:45:00,68.5,62.1,29.62,East,80,3.6,9.2,80,0.00,CLR,,1.24,0.0,WeatherDisplay:10.37,2013-05-20 02:45:00,
2013-05-19 21:50:00,68.7,62.6,29.63,ESE,123,4.1,7.0,81,0.00,CLR,,1.24,0.0,WeatherDisplay:10.37,2013-05-20 02:50:00,
2013-05-19 21:55:00,69.0,62.9,29.64,SE,139,3.5,6.9,81,0.00,CLR,,1.24,0.0,WeatherDisplay:10.37,2013-05-20 02:55:00,
2013-05-19 22:00:00,69.3,63.6,29.64,ESE,115,4.3,9.2,82,0.00,CLR,,1.24,0.0,WeatherDisplay:10.37,2013-05-20 03:00:00,
2013-05-19 22:05:00,69.7,64.3,29.64,SE,136,4.1,6.9,83,0.00,CLR,,1.24,0.0,WeatherDisplay:10.37,2013-05-20 03:05:00,
2013-05-19 22:10:00,70.4,65.3,29.64,SE,130,6.9,11.0,84,0.00,CLR,,1.24,0.0,WeatherDisplay:10.37,2013-05-20 03:10:00,
2013-05-19 22:15:00,71.0,65.6,29.65,SSE,167,6.7,10.4,83,0.00,CLR,,1.24,0.0,WeatherDisplay:10.37,2013-05-20 03:15:00,
2013-05-19 22:20:00,71.3,65.9,29.65,SE,140,6.1,10.4,83,0.00,CLR,,1.24,0.0,WeatherDisplay:10.37,2013-05-20 03:20:00,
2013-05-19 22:25:00,72.1,67.3,29.65,SSE,157,8.7,12.7,85,0.00,CLR,,1.24,0.0,WeatherDisplay:10.37,2013-05-20 03:25:00,
2013-05-19 22:30:00,73.6,68.8,29.65,SSE,150,9.4,13.0,85,0.00,CLR,,1.24,0.0,WeatherDisplay:10.37,2013-05-20 03:30:00,
2013-05-19 22:35:00,75.0,70.2,29.65,SSE,165,10.4,19.6,85,0.00,CLR,,1.24,0.0,WeatherDisplay:10.37,2013-05-20 03:35:00,
2013-05-19 22:40:00,76.1,70.2,29.66,SSE,149,8.6,17.0,82,0.00,CLR,,1.24,0.0,WeatherDisplay:10.37,2013-05-20 03:40:00,
2013-05-19 22:45:00,76.9,70.6,29.66,South,176,9.1,15.0,81,0.00,CLR,,1.24,0.0,WeatherDisplay:10.37,2013-05-20 03:45:00,
2013-05-19 22:50:00,77.3,70.6,29.66,South,174,8.9,18.4,80,0.00,CLR,,1.24,0.0,WeatherDisplay:10.37,2013-05-20 03:50:00,
2013-05-19 22:55:00,77.5,70.1,29.66,South,180,7.5,15.0,78,0.00,CLR,,1.24,0.0,WeatherDisplay:10.37,2013-05-20 03:55:00,
2013-05-19 23:00:00,77.7,69.9,29.66,South,180,6.2,17.3,77,0.00,CLR,,1.24,0.0,WeatherDisplay:10.37,2013-05-20 04:00:00,
2013-05-19 23:01:00,77.7,69.9,29.66,SE,146,6.7,11.5,77,0.00,CLR,,1.24,0.0,WeatherDisplay:10.37,2013-05-20 04:01:00,
2013-05-19 23:02:00,77.7,69.9,29.66,SSE,163,8.9,19.6,77,0.00,CLR,,1.24,0.0,WeatherDisplay:10.37,2013-05-20 04:02:00,
2013-05-19 23:07:00,77.9,69.3,29.68,WSW,237,10.3,23.0,75,0.00,CLR,,1.24,0.0,WeatherDisplay:10.37,2013-05-20 04:07:00,
2013-05-19 23:12:00,76.2,62.2,29.72,WNW,288,18.3,32.2,62,0.00,,,1.24,0.0,WeatherDisplay:10.37,2013-05-20 04:12:00,
2013-05-19 23:17:00,73.4,61.3,29.73,West,267,14.9,26.5,66,0.00,CLR,,1.24,0.0,WeatherDisplay:10.37,2013-05-20 04:17:00,
2013-05-19 23:22:00,71.8,61.5,29.73,WSW,249,12.6,19.6,70,0.00,CLR,,1.24,0.0,WeatherDisplay:10.37,2013-05-20 04:22:00,
2013-05-19 23:27:00,70.6,61.5,29.74,West,264,9.3,15.0,73,0.00,CLR,,1.24,0.0,WeatherDisplay:10.37,2013-05-20 04:27:00,
2013-05-19 23:32:00,69.8,61.5,29.74,SW,236,8.2,12.7,75,0.01,RA,,1.25,0.0,WeatherDisplay:10.37,2013-05-20 04:32:00,
2013-05-19 23:37:00,69.1,61.6,29.73,West,271,8.1,12.0,77,0.01,RA,,1.25,0.0,WeatherDisplay:10.37,2013-05-20 04:37:00,
2013-05-19 23:42:00,68.4,61.6,29.73,West,263,6.0,10.4,79,0.01,,,1.25,0.0,WeatherDisplay:10.37,2013-05-20 04:42:00,
2013-05-19 23:47:00,67.8,61.4,29.71,West,271,4.8,9.2,80,0.01,CLR,,1.25,0.0,WeatherDisplay:10.37,2013-05-20 04:47:00,
2013-05-19 23:52:00,67.5,61.5,29.69,West,267,3.8,5.0,81,0.01,CLR,,1.25,0.0,WeatherDisplay:10.37,2013-05-20 04:52:00,
2013-05-19 23:57:00,67.2,61.5,29.69,West,279,4.1,5.0,82,0.01,CLR,,1.25,0.0,WeatherDisplay:10.37,2013-05-20 04:57:00,